Weather WX

World > North America > United States > Michigan

Grand Beach, Michigan Regional Weather

Lat: 41.77N, Lon: 86.79W
Wx Zone: MIZ077
Feedback

Grand Beach, MI Regional Weather

Expires:201906171700;;634901
ASUS43 KDTX 171610
RWRMI 
MICHIGAN HOURLY REGIONAL WEATHER ROUNDUP
NATIONAL WEATHER SERVICE DETROIT/PONTIAC MI
1200 PM EDT MON JUN 17 2019

NOTE: "FAIR" INDICATES FEW OR NO CLOUDS BELOW 12,000 FEET WITH NO
SIGNIFICANT WEATHER AND/OR OBSTRUCTION TO VISIBILITY.


MIZ043>046-050>051-056>058-064>065-071>073-077>080-171700-
SOUTHWEST LOWER MICHIGAN
  
CITY           SKY/WX    TMP DP  RH WIND       PRES   REMARKS
BATTLE CREEK   CLOUDY    63  59  87 E6        30.02S                  
BENTON HARBOR  CLOUDY    67  62  84 E3        30.00R                  
BIG RAPIDS     PTSUNNY   65  52  61 CALM      30.04S                  
COLDWATER      CLOUDY    64  64 100 SE3       30.01S FOG              
FREMONT        CLOUDY    64  53  66 NE7       30.03S                  
HOLLAND          N/A     60  57  89 E6        30.03R FOG              
GRAND RAPIDS   CLOUDY    60  55  83 E8        30.03S                  
IONIA          CLOUDY    59  54  82 NE6       30.04S                  
KALAMAZOO      CLOUDY    66  59  78 SE5       30.01S                  
LUDINGTON      FAIR      67  52  59 E3        30.03S                  
MARSHALL       CLOUDY    64  64 100 CALM      30.02R                  
MOUNT PLEASANT CLOUDY    63  52  67 CALM      30.04S                  
MUSKEGON       CLOUDY    63  53  70 E9        30.03S                  
SOUTH HAVEN    CLOUDY    66  63  90 SE3       30.01S                  
$$

SKY/WX - Weather  TMP - Temperature  DP - Dew Point  RH - Relative Humidity
WIND - Wind Direction/Speed PRES - Barometric Pressure VSB - Visibility
WCI - Wind Chill Index E13G22 Wind - East Wind 13 mph/Gusts of 22 mph